Regional Weather Roundup
Issued by NWS

Home | Current Version | Previous Version | Graphics & Text | Print | Product List | Glossary On
Versions: 1 2 3 4 5 6 7 8 9 10 11 12 13 14 15 16 17 18 19 20 21 22 23 24 25 26 27 28 29 30 31 32 33 34 35 36 37 38 39 40 41 42 43 44 45 46 47 48 49 50
786
ASUS45 KBOU 131410
RWRCO

WEATHER ROUNDUP FOR COLORADO
NATIONAL WEATHER SERVICE DENVER/BOULDER CO
700 AM MST WED DEC 13 2017

NOTE: "FAIR" INDICATES FEW OR NO CLOUDS BELOW 12000 FEET WITH NO
SIGNIFICANT WEATHER AND/OR OBSTRUCTIONS TO VISIBILITY.

COZ001>005-013-030-031-131500-
...NORTHWEST COLORADO...

CITY           SKY/WX    TMP DP  RH WIND       PRES   REMARKS
CRAIG          CLOUDY    15  10  80 SW3       30.26F
HAYDEN         CLOUDY    22  14  71 E13       30.25F WCI  10
MEEKER         FAIR      17  10  74 CALM      30.26S
RABBIT EARS PA CLOUDY    25   7  46 W8        30.27R WCI  16
STEAMBOAT SPGS CLOUDY    15  12  87 CALM      30.25F
WALDEN         FAIR      19   9  63 CALM      30.23S
$$

COZ006>008-011-131500-
...WEST CENTRAL VALLEYS...

CITY           SKY/WX    TMP DP  RH WIND       PRES   REMARKS
GRAND JUNCTION FAIR      20   9  62 NE6       30.26R WCI  12
MONTROSE       FAIR      18   8  65 SE9       30.28F WCI   7
EAGLE          FAIR       9   5  84 E3        30.35S
RIFLE          FAIR      18   9  68 CALM      30.29S
DELTA          FAIR      16   5  60 CALM      30.28S
NUCLA          FAIR      21   5  49 E5        30.29S WCI  15
$$

COZ017>023-064>068-131500-
...SOUTHWEST COLORADO...

CITY           SKY/WX    TMP DP  RH WIND       PRES   REMARKS
DURANGO        FAIR      13   3  64 E5        30.22S WCI   5
CORTEZ         FAIR      11   2  67 NE5       30.24S WCI   3
PAGOSA SPRINGS FAIR      19   3  50 CALM      30.22F
TELLURIDE      FAIR      31   2  28 CALM      30.31R
WOLF CREEK PAS FAIR      28 -11  17 NW8G16    30.38S WCI  20
$$

COZ009-010-012-014-032>034-037-058>063-131500-
...CENTRAL COLORADO...

CITY           SKY/WX    TMP DP  RH WIND       PRES   REMARKS
ASPEN          FAIR      19   8  62 S7        30.26R WCI  10
BUENA VISTA    FAIR      24   6  46 CALM      30.25R
COPPER MTN     NOT AVBL
BERTHOUD PASS  CLOUDY    19   9  63 NW31G41   30.28S WCI   0
COTTONWOOD PAS FAIR      37  -8  14 NW7       30.28R
GUNNISON       FAIR       7   1  76 CALM      30.35R
KREMMLING      CLOUDY    14  10  85 SW3       30.32R
LEADVILLE      FAIR      25   2  37 CALM      30.27S
MONARCH PASS   FAIR      27  -2  28 CALM      30.45R
SALIDA         FAIR      29   8  39 NW3       30.32R
SUNLIGHT       FAIR      30   5  34 W8        30.36S WCI  23
WILKERSON PASS CLOUDY    30 -15  13 N13G21    30.32S WCI  20
$$

COZ069>075-131500-
...SAN LUIS VALLEY/SANGRE DE CRISTO MOUNTAINS...

CITY           SKY/WX    TMP DP  RH WIND       PRES   REMARKS
ALAMOSA        FAIR       3  -4  72 SW6       30.25F WCI  -8
DEL NORTE      FAIR      25   3  38 W8        30.26R WCI  16
LA VETA PASS   FAIR      30   3  31 SW8         N/A  WCI  23
SAGUACHE       FAIR      28   5  37 W3        30.26S
$$

COZ035-036-038>040-131500-
...NORTHERN COLORADO FRONT RANGE...

CITY           SKY/WX    TMP DP  RH WIND       PRES   REMARKS
DENVER INTL AP MOCLDY    38   7  27 E8        30.14R
DMNS CITY PARK NOT AVBL
AURORA         MOCLDY    38   7  27 E12       30.15S
FRONT RANGE AP MOCLDY    43   9  24 E6        30.16R
ERIE MUNI ARPT CLOUDY    40   6  24 CALM      30.20R
BOULDER MUN AP CLOUDY    43   9  24 SE5       30.15R
CENTENNIAL     MOCLDY    39   8  27 SE9       30.17R
BROOMFIELD     MOCLDY    41   7  24 S6        30.16R
FORT COLLINS   FAIR      44  10  25 VRB3      30.13R
LONGMONT       MOCLDY    42  10  26 SW5       30.17R
$$

COZ041-046-047-076>085-087-088-131500-
...PIKES PEAK/PALMER DIVIDE AND SOUTHERN FOOTHILLS...

CITY           SKY/WX    TMP DP  RH WIND       PRES   REMARKS
COLO. SPRINGS  MOCLDY    40   5  23 NE22      30.14R
A. F. ACADEMY  FAIR      39   2  20 NE20G25   30.13R
SCHRIEVER AFB  FAIR      38   3  23 N15G25    30.15R
CHEYENNE MTN   FAIR      48  -6  10 N6        30.09R
ELLICOTT         N/A    N/A N/A N/A NE18      30.13R
FALCON         FAIR      34   2  26 N12       30.18R WCI  25
FORT CARSON    FAIR      39   3  21 NE12      30.12R
LIMON          MOCLDY    39   9  29 N15       30.14R
MONUMENT HILL  FAIR      32   5  32 E8        30.20S WCI  25
CANON CITY     FAIR      43  10  26 W15       30.11R
WALSENBURG     FAIR      46   5  18 SW7       30.12R
TRINIDAD       FAIR      29  11  47 W12       30.11R WCI  19
$$

COZ042>045-048>051-090-091-131500-
...NORTHEAST COLORADO...

CITY           SKY/WX    TMP DP  RH WIND       PRES   REMARKS
GREELEY ARPT   FAIR      42  10  27 N13       30.14R
AKRON          FAIR      44  10  25 MISG      30.12R
BURLINGTON     FAIR      45  11  25 NW14      30.09R
WRAY           FAIR      45  12  26 NW12      30.08R
YUMA           FAIR      41  12  30 NW12      30.09R
STERLING       FAIR      43  14  31 NW17      30.11R
HOLYOKE        FAIR      46  14  27 NW18      30.06S
FORT MORGAN    MOCLDY    45   8  22 N20G28    30.14R
$$

COZ086-089-092>099-131500-
...SOUTHEAST COLORADO...

CITY           SKY/WX    TMP DP  RH WIND       PRES   REMARKS
PUEBLO         FAIR      36   7  29 N13       30.13R
LA JUNTA       FAIR      27  13  55 SW8       30.13R WCI  19
LAMAR          FAIR      25  12  58 S10       30.08S WCI  15
SPRINGFIELD      N/A     40  12  32 N16       30.08R
$$




USA.gov is the U.S. government's official web portal to all federal, state and local government web resources and services.